Date String (YYYY-MM-DD hh:mm:ss) UTC,Instrument flags,Ambient pressure (hPa),Sample flow (lpm),Bypass flow (lpm),Sample temperature (°C),Ambient temperature (°C),ASC tube jacket temperature (°C),LED temperature (°C),Box temperature (°C),Sample RH (%),Span deviation,Mass concentration (μg/m³),Mass concentration (μg/m³),Mass concentration (μg/m³)
DateTimeUTC,F1_M11,P_M11,Q1_M11,Q2_M11,T1_M11,T2_M11,T3_M11,T4_M11,T5_M11,U1_M11,ZSPAN_M11,X0_M11,X2_M11,X1_M11
2021-08-29 12:00:00,,0833.0,5.01,0.00,30.0,29.2,00.0,39.0,31.8,25.8,0002.5,0019.70,0012.05,0011.18
2021-08-29 12:01:00,,0833.1,5.00,0.00,30.0,29.2,00.0,39.1,31.8,25.8,0002.5,0020.12,0012.06,0011.18
2021-08-29 12:02:00,,0833.0,5.00,0.00,30.0,29.2,00.0,39.1,31.9,25.8,0002.4,0019.75,0012.01,0011.19
2021-08-29 12:03:00,,0833.0,5.00,0.00,30.0,29.3,00.0,39.1,31.9,25.7,0002.6,0020.54,0011.95,0011.18
2021-08-29 12:04:00,,0833.1,4.99,0.00,30.0,29.3,00.0,39.1,31.9,25.7,0002.7,0020.87,0011.93,0011.19
2021-08-29 12:05:00,,0833.0,5.02,0.00,30.1,29.0,00.0,39.1,31.9,25.7,0002.7,0020.94,0011.94,0011.19
2021-08-29 12:06:00,,0833.1,5.00,0.00,30.0,27.1,00.0,39.1,31.4,25.8,0002.7,0020.28,0011.96,0011.20
2021-08-29 12:07:00,,0833.1,5.00,0.00,29.8,26.2,00.0,39.1,31.2,25.9,0002.4,0019.95,0011.93,0011.19
2021-08-29 12:08:00,,0833.0,5.00,0.00,29.7,26.4,00.0,39.0,31.2,26.1,0002.2,0019.86,0011.96,0011.21
2021-08-29 12:09:00,,0833.1,5.00,0.00,29.7,26.8,00.0,39.0,31.2,26.2,0002.2,0019.68,0012.01,0011.23
2021-08-29 12:10:00,,0833.1,5.00,0.00,29.7,27.3,00.0,39.0,31.2,26.3,0002.1,0019.19,0011.99,0011.20
2021-08-29 12:11:00,,0833.2,5.00,0.00,29.7,27.6,00.0,38.9,31.3,26.3,0002.0,0019.30,0011.95,0011.20
2021-08-29 12:12:00,,0833.1,4.99,0.00,29.7,27.9,00.0,38.9,31.3,26.3,0001.8,0018.90,0011.94,0011.21
2021-08-29 12:13:00,,0833.1,5.00,0.00,29.7,28.1,00.0,38.9,31.4,26.3,0001.8,0019.97,0011.93,0011.18
2021-08-29 12:14:00,,0833.2,5.00,0.00,29.7,28.3,00.0,38.9,31.4,26.3,0001.9,0019.78,0011.96,0011.17
2021-08-29 12:15:00,,0833.2,4.99,0.00,29.7,28.4,00.0,38.9,31.4,26.3,0001.9,0019.47,0012.01,0011.16
2021-08-29 12:16:00,,0833.2,5.01,0.00,29.7,28.5,00.0,38.9,31.5,26.3,0002.1,0019.24,0012.01,0011.17
2021-08-29 12:17:00,,0833.1,4.99,0.00,29.7,28.6,00.0,38.9,31.5,26.3,0002.2,0019.33,0012.03,0011.16
2021-08-29 12:18:00,,0833.2,5.00,0.00,29.8,28.7,00.0,38.9,31.5,26.3,0002.4,0019.58,0012.06,0011.18
2021-08-29 12:19:00,,0833.2,5.00,0.00,29.8,28.8,00.0,38.9,31.5,26.3,0002.5,0020.22,0012.07,0011.18
2021-08-29 12:20:00,,0833.2,5.02,0.00,29.8,28.8,00.0,38.9,31.6,26.3,0002.6,0020.55,0012.04,0011.18
2021-08-29 12:21:00,,0833.1,4.99,0.00,29.8,28.9,00.0,38.9,31.6,26.3,0002.7,0021.00,0012.12,0011.19
2021-08-29 12:22:00,,0833.2,5.01,0.00,29.9,28.9,00.0,38.9,31.7,26.2,0002.7,0020.65,0012.19,0011.20
2021-08-29 12:23:00,,0833.2,5.00,0.00,29.9,29.0,00.0,38.9,31.7,26.2,0002.7,0021.57,0012.23,0011.21
2021-08-29 12:24:00,,0833.2,5.01,0.00,29.9,29.0,00.0,39.0,31.7,26.2,0002.4,0021.16,0012.28,0011.24
2021-08-29 12:25:00,,0833.2,4.99,0.00,29.9,29.1,00.0,39.0,31.7,26.2,0002.1,0020.33,0012.33,0011.28
2021-08-29 12:26:00,,0833.2,5.00,0.00,29.9,29.1,00.0,39.0,31.8,26.2,0002.0,0020.23,0012.31,0011.27
2021-08-29 12:27:00,,0833.2,4.99,0.00,29.9,29.2,00.0,39.0,31.7,26.3,0002.1,0020.23,0012.31,0011.27
2021-08-29 12:28:00,,0833.3,5.01,0.00,30.0,29.2,00.0,39.0,31.8,26.2,0001.9,0019.97,0012.24,0011.25
2021-08-29 12:29:00,,0833.3,4.99,0.00,30.0,29.2,00.0,39.0,31.8,26.3,0002.0,0019.62,0012.23,0011.24
2021-08-29 12:30:00,,0833.3,5.00,0.00,30.0,29.2,00.0,39.1,31.9,26.4,0002.0,0019.22,0012.25,0011.25
2021-08-29 12:31:00,,0833.3,5.00,0.00,30.0,29.3,00.0,39.1,31.9,26.2,0001.9,0019.51,0012.26,0011.26
2021-08-29 12:32:00,,0833.4,5.00,0.00,30.1,29.3,00.0,39.1,31.9,26.0,0001.8,0019.24,0012.20,0011.25
2021-08-29 12:33:00,,0833.4,5.00,0.00,30.1,29.3,00.0,39.1,31.9,26.0,0001.9,0019.26,0012.14,0011.21
2021-08-29 12:34:00,,0833.4,5.00,0.00,30.1,29.3,00.0,39.2,32.0,26.0,0002.1,0018.36,0012.09,0011.18
2021-08-29 12:35:00,,0833.4,5.01,0.00,30.1,29.4,00.0,39.2,32.0,26.0,0002.5,0017.77,0012.07,0011.16
2021-08-29 12:36:00,,0833.4,5.00,0.00,30.2,29.4,00.0,39.2,32.0,25.9,0002.6,0018.02,0012.01,0011.14
2021-08-29 12:37:00,,0833.4,5.00,0.00,30.1,28.1,00.0,39.2,31.7,25.9,0002.4,0018.71,0011.99,0011.12
2021-08-29 12:38:00,,0833.3,5.00,0.00,30.0,26.4,00.0,39.2,31.2,26.2,0002.2,0019.21,0011.99,0011.11
2021-08-29 12:39:00,,0833.3,5.00,0.00,29.8,26.2,00.0,39.1,31.1,26.4,0002.4,0019.27,0012.02,0011.13
2021-08-29 12:40:00,,0833.3,5.00,0.00,29.7,26.6,00.0,39.1,31.2,26.6,0002.1,0019.89,0011.96,0011.11
2021-08-29 12:41:00,,0833.3,5.01,0.00,29.7,27.1,00.0,39.0,31.2,26.8,0002.0,0020.34,0011.93,0011.07
2021-08-29 12:42:00,,0833.4,4.99,0.00,29.7,27.5,00.0,39.0,31.3,26.8,0002.0,0020.23,0011.93,0011.05
2021-08-29 12:43:00,,0833.4,5.00,0.00,29.7,27.8,00.0,39.0,31.4,26.8,0001.9,0021.67,0011.93,0011.03
2021-08-29 12:44:00,,0833.4,5.02,0.00,29.7,28.0,00.0,39.0,31.4,26.9,0001.8,0022.77,0011.96,0011.05
2021-08-29 12:45:00,,0833.4,4.98,0.00,29.7,28.2,00.0,39.0,31.5,26.9,0001.5,0022.86,0011.98,0011.06
2021-08-29 12:46:00,,0833.4,5.02,0.00,29.8,28.4,00.0,39.0,31.5,26.9,0001.3,0023.49,0011.97,0011.04
2021-08-29 12:47:00,,0833.4,5.00,0.00,29.8,28.5,00.0,38.9,31.5,27.0,0001.4,0023.30,0011.98,0011.04
2021-08-29 12:48:00,,0833.4,4.98,0.00,29.8,28.6,00.0,38.9,31.6,26.9,0001.6,0022.28,0011.99,0011.06
2021-08-29 12:49:00,,0833.4,5.00,0.00,29.8,28.7,00.0,38.9,31.6,26.9,0001.5,0021.84,0011.96,0011.05
2021-08-29 12:50:00,,0833.4,4.99,0.00,29.8,28.8,00.0,39.0,31.6,26.8,0001.4,0022.34,0011.95,0011.04
2021-08-29 12:51:00,,0833.4,5.01,0.00,29.9,28.8,00.0,39.0,31.7,26.8,0001.8,0022.25,0011.96,0011.04
2021-08-29 12:52:00,,0833.4,5.00,0.00,29.9,28.9,00.0,39.0,31.7,26.8,0001.9,0022.01,0011.99,0011.06
2021-08-29 12:53:00,,0833.4,5.00,0.00,29.9,28.9,00.0,39.0,31.7,26.8,0002.0,0023.54,0012.02,0011.08
2021-08-29 12:54:00,,0833.4,5.00,0.00,29.9,29.0,00.0,39.0,31.7,26.8,0001.8,0022.32,0012.06,0011.12
2021-08-29 12:55:00,,0833.5,5.00,0.00,30.0,29.0,00.0,39.0,31.8,26.8,0001.7,0021.24,0012.02,0011.12
2021-08-29 12:56:00,,0833.4,5.01,0.00,30.0,29.1,00.0,39.0,31.8,26.9,0001.7,0021.45,0012.00,0011.13
2021-08-29 12:57:00,,0833.5,4.98,0.00,30.0,29.1,00.0,39.0,31.8,26.8,0001.8,0021.14,0012.08,0011.16
2021-08-29 12:58:00,,0833.4,5.01,0.00,30.0,29.2,00.0,39.1,31.8,26.8,0001.7,0021.05,0012.09,0011.17
2021-08-29 12:59:00,,0833.4,4.99,0.00,30.0,29.2,00.0,39.1,31.9,26.8,0001.5,0022.00,0012.12,0011.17
